Regional Weather Roundup
Issued by NWS Goodland, KS

Home | Current Version | Previous Version | Graphics & Text | Print | Product List | Glossary On
Versions: 1 2 3 4 5 6 7 8 9 10 11 12 13 14 15 16 17 18 19 20 21 22 23 24 25 26 27 28 29 30 31 32 33 34 35 36 37 38 39 40 41 42 43 44 45 46 47 48 49 50
000
ASUS43 KGLD 191208
RWRGLD

GOODLAND FORECAST AREA HOURLY WEATHER ROUNDUP
NATIONAL WEATHER SERVICE GOODLAND KS
500 AM MST FRI DEC 19 2014

...OFFICIAL OBSERVATIONS...

CITY           SKY/WX    TMP DP  RH WIND       PRES   REMARKS
GOODLAND KS    CLEAR     25  20  81 W9        30.08S
HILL CITY KS   CLOUDY    33  30  88 SW6       30.14S
IMPERIAL NEB   CLEAR     14  10  84 NW6       30.08S
MCCOOK NEB     FOG       15  13  91 SW3       30.11S VSB 1
AKRON CO       CLOUDY    22  20  92 W12       30.06R FOG     WCI  10
BURLINGTON CO  CLEAR     23  19  85 W9        30.08R
LIMON CO       CLEAR     15  11  83 N3        30.07S
$$

...UNOFFICIAL OBSERVATIONS...

CITY           SKY/WX    TMP DP  RH WIND       PRES   REMARKS
COLBY KS       CLEAR     21  21 100 CALM      30.10S
GOVE KS          N/A     26  32 100 MISG        N/A
NORTON KS      FOG       30  28  93 SW6       30.11F VSB 3/4
SHARON SPRINGS   N/A     31  29  92 CALM        N/A
TRIBUNE KS     CLOUDY    32  32 100 W5        30.11S
KIT CARSON CO    N/A     25  22  88 MISG        N/A
YUMA CO          N/A     17  12  82 W7          N/A
$$


USA.gov is the U.S. government's official web portal to all federal, state and local government web resources and services.